Location: Newark
(9.4667°S, 159.8167°E)
Time: 22:23:12
(UTC+00:00)

Courier 1B Rocket - Pass Details

Date: 27 November 2019
Orbit: 920 x 1202 km, 28.2° (Epoch: 09 December)

Event Time Altitude Azimuth Distance (km) Brightness Sun altitude
Rises 22:21:18 0° 281° (W) 3,590 7.6 48.2°
Reaches altitude 10° 22:26:24 10° 315° (NW) 2,608 7.0 49.4°
Maximum altitude 22:27:58 11° 330° (NNW) 2,533 7.0 49.7°
Drops below altitude 10° 22:29:32 10° 345° (NNW) 2,597 7.1 50.1°
Sets 22:34:36 0° 20° (NNE) 3,542 7.9 51.2°
